Temp
-12 -12 -12 -12 -12 -12 -12 -12 -12 -14 -14 -14 -14 -14 -13 -13 -12 -13 -13 -13 -13 -13 -13 -12 -12 -12 -11 -11 -11 -10 -10 -9 -9 -8 -8 -8 -8 -8 -8 -8 -8 -9 -8 -9 -9 -10 -10
-12 -12 -12 -12 -12 -13 -12 -12 -12 -13 -13 -14 -14 -14 -14 -13 -13 -13 -13 -13 -14 -14 -14 -13 -13 -13 -12 -12 -12 -11 -11 -11 -10 -9 -9 -9 -9 -9 -9 -9 -10 -10 -10 -10 -10 -11 -11
-12 -12 -12 -12 -12 -13 -13 -12 -12 -12 -13 -13 -14 -14 -14 -14 -14 -13 -14 -14 -14 -14 -14 -13 -13 -13 -13 -12 -12 -12 -12 -11 -11 -10 -10 -10 -10 -10 -10 -10 -11 -11 -11 -11 -12 -12 -12
-13 -13 -13 -12 -12 -12 -12 -13 -13 -13 -13 -14 -13 -14 -14 -14 -14 -14 -14 -14 -15 -14 -14 -14 -14 -14 -13 -13 -13 -13 -12 -11 -11 -11 -11 -11 -11 -11 -12 -12 -12 -12 -12 -12 -12 -12 -12
-13 -13 -13 -13 -13 -12 -13 -13 -13 -13 -13 -13 -13 -13 -13 -13 -14 -14 -14 -14 -14 -14 -14 -14 -14 -14 -13 -13 -13 -12 -12 -12 -11 -11 -11 -11 -11 -11 -12 -12 -12 -13 -13 -13 -13 -14 -14
-14 -14 -14 -13 -13 -13 -13 -13 -13 -13 -13 -13 -13 -13 -13 -13 -14 -15 -15 -14 -14 -14 -14 -14 -14 -14 -14 -13 -13 -12 -12 -12 -11 -11 -11 -12 -12 -12 -12 -12 -13 -13 -14 -14 -14 -14 -15
-14 -14 -14 -14 -13 -13 -13 -14 -13 -13 -13 -13 -13 -13 -13 -13 -13 -14 -14 -14 -14 -14 -14 -14 -14 -13 -13 -13 -12 -12 -12 -12 -12 -12 -12 -12 -12 -12 -12 -12 -13 -13 -14 -14 -14 -14 -14
-14 -14 -15 -15 -14 -14 -14 -14 -14 -14 -14 -13 -13 -13 -13 -13 -13 -13 -14 -14 -14 -14 -14 -14 -14 -13 -13 -13 -13 -12 -13 -13 -13 -13 -12 -12 -12 -13 -13 -13 -13 -14 -14 -14 -14 -13 -14
-15 -15 -14 -15 -15 -14 -14 -14 -14 -14 -14 -14 -14 -13 -13 -13 -13 -13 -13 -14 -14 -14 -13 -14 -14 -13 -13 -13 -13 -13 -13 -13 -13 -12 -12 -12 -13 -14 -14 -14 -14 -14 -14 -14 -14 -14 -14
-16 -15 -15 -15 -16 -15 -15 -15 -15 -15 -14 -14 -14 -14 -14 -14 -14 -14 -14 -14 -14 -14 -14 -14 -14 -13 -13 -13 -13 -13 -13 -13 -13 -13 -13 -13 -14 -14 -14 -14 -14 -14 -14 -14 -14 -14 -15
-17 -16 -15 -15 -16 -16 -15 -16 -16 -15 -15 -15 -15 -14 -14 -14 -15 -15 -14 -14 -14 -14 -14 -14 -14 -14 -13 -14 -14 -13 -13 -13 -13 -13 -14 -14 -15 -14 -14 -14 -14 -14 -14 -14 -15 -16 -17
-17 -17 -16 -16 -16 -16 -15 -16 -16 -15 -16 -15 -15 -14 -14 -15 -15 -15 -14 -14 -14 -14 -14 -14 -14 -14 -14 -14 -14 -14 -14 -13 -14 -14 -15 -15 -15 -14 -14 -14 -14 -15 -15 -15 -16 -17 -19
-17 -18 -18 -18 -16 -16 -16 -16 -16 -16 -16 -16 -15 -15 -14 -15 -14 -14 -14 -14 -14 -14 -14 -14 -14 -14 -14 -14 -14 -14 -14 -14 -14 -15 -15 -15 -15 -15 -15 -15 -15 -15 -16 -17 -18 -19 -21
-18 -19 -18 -17 -17 -17 -16 -17 -16 -16 -16 -16 -16 -15 -15 -15 -14 -14 -14 -14 -14 -14 -14 -14 -14 -14 -14 -15 -14 -14 -14 -15 -15 -15 -15 -15 -15 -15 -15 -16 -16 -16 -16 -17 -19 -20 -22
-21 -20 -19 -18 -17 -17 -17 -17 -17 -16 -15 -15 -15 -15 -15 -15 -14 -14 -15 -14 -14 -14 -14 -14 -14 -14 -15 -15 -14 -14 -14 -15 -16 -15 -15 -15 -15 -16 -16 -16 -16 -16 -17 -18 -19 -21 -22
-22 -21 -21 -20 -18 -17 -17 -17 -17 -17 -16 -16 -15 -15 -15 -15 -15 -15 -14 -14 -14 -15 -15 -14 -15 -15 -15 -15 -14 -14 -15 -16 -16 -16 -16 -16 -16 -16 -16 -16 -17 -17 -17 -18 -19 -20 -22
-23 -22 -21 -19 -19 -17 -17 -17 -17 -17 -17 -16 -16 -15 -15 -15 -15 -14 -14 -14 -15 -15 -15 -15 -15 -15 -15 -14 -15 -15 -16 -16 -16 -16 -16 -16 -16 -17 -17 -17 -17 -18 -18 -18 -19 -20 -21
-24 -23 -22 -20 -19 -18 -18 -17 -17 -17 -17 -17 -16 -15 -15 -15 -14 -14 -15 -15 -15 -15 -15 -15 -15 -15 -15 -15 -16 -16 -16 -16 -16 -16 -16 -16 -17 -17 -17 -17 -18 -18 -18 -19 -19 -20 -21
-23 -22 -21 -19 -19 -18 -18 -18 -17 -17 -17 -16 -15 -15 -15 -15 -14 -15 -15 -15 -15 -15 -15 -15 -16 -15 -15 -16 -16 -16 -16 -16 -16 -16 -16 -17 -17 -17 -17 -18 -18 -18 -18 -19 -20 -20 -21
-21 -21 -21 -19 -19 -18 -18 -18 -18 -17 -17 -16 -16 -15 -15 -15 -15 -15 -16 -16 -15 -15 -16 -16 -16 -15 -15 -16 -17 -16 -16 -16 -16 -16 -17 -17 -17 -17 -18 -18 -18 -18 -19 -19 -19 -20 -21
-22 -21 -21 -21 -20 -19 -18 -18 -17 -17 -16 -16 -16 -15 -14 -13 -15 -16 -16 -15 -15 -16 -16 -16 -16 -16 -16 -16 -17 -16 -16 -17 -17 -17 -17 -17 -17 -17 -18 -18 -18 -18 -19 -19 -19 -20 -20
-23 -21 -20 -20 -19 -19 -18 -17 -17 -17 -17 -16 -15 -15 -15 -16 -16 -16 -16 -16 -16 -16 -16 -16 -16 -16 -16 -17 -16 -16 -17 -17 -17 -17 -17 -17 -17 -18 -18 -18 -18 -19 -19 -19 -20 -20 -20
-23 -21 -21 -20 -19 -19 -18 -17 -17 -17 -17 -16 -15 -16 -16 -16 -16 -16 -16 -16 -16 -16 -16 -16 -16 -16 -16 -17 -16 -17 -17 -17 -17 -17 -17 -17 -17 -18 -18 -18 -18 -19 -19 -19 -20 -20 -20
-22 -21 -21 -20 -19 -19 -18 -18 -17 -17 -16 -16 -16 -17 -16 -16 -17 -17 -16 -16 -16 -16 -16 -16 -17 -17 -17 -17 -17 -17 -17 -17 -17 -17 -17 -18 -17 -18 -18 -18 -18 -19 -19 -19 -20 -20 -20
-23 -21 -21 -20 -19 -19 -18 -19 -17 -17 -17 -17 -17 -16 -16 -17 -17 -17 -17 -16 -16 -16 -16 -17 -17 -17 -17 -17 -17 -17 -17 -17 -17 -17 -17 -17 -17 -18 -18 -18 -18 -19 -19 -19 -20 -20 -20
-23 -22 -21 -20 -19 -19 -18 -18 -18 -17 -17 -16 -17 -17 -17 -17 -17 -17 -17 -16 -16 -16 -16 -17 -17 -17 -17 -18 -17 -17 -17 -17 -17 -17 -17 -17 -18 -18 -18 -18 -18 -18 -19 -19 -20 -20 -20
-23 -22 -21 -20 -19 -19 -19 -18 -18 -17 -17 -17 -17 -17 -17 -17 -17 -17 -16 -17 -17 -16 -16 -17 -17 -17 -18 -18 -17 -17 -17 -17 -17 -17 -17 -17 -18 -18 -18 -18 -18 -19 -19 -19 -19 -20 -20
-23 -22 -21 -20 -20 -19 -18 -18 -17 -17 -17 -17 -17 -17 -17 -17 -17 -17 -17 -17 -17 -17 -17 -17 -17 -18 -18 -18 -18 -17 -17 -17 -17 -17 -17 -17 -18 -18 -18 -18 -18 -19 -19 -19 -19 -20 -20
-22 -21 -21 -20 -19 -19 -18 -18 -18 -17 -17 -17 -17 -17 -17 -17 -17 -17 -17 -17 -17 -17 -17 -17 -17 -17 -18 -18 -18 -17 -17 -17 -17 -17 -17 -18 -18 -18 -18 -18 -18 -19 -19 -19 -19 -20 -20
Height
5695 5704 5713 5722 5732 5740 5749 5756 5764 5770 5776 5782 5787 5790 5794 5800 5805 5808 5812 5815 5818 5819 5820 5823 5825 5826 5829 5829 5830 5830 5830 5831 5831 5832 5832 5831 5831 5830 5827 5825 5822 5817 5815 5813 5810 5807 5804
5679 5690 5700 5709 5720 5729 5739 5747 5755 5762 5770 5777 5781 5784 5790 5793 5797 5801 5805 5809 5812 5813 5815 5817 5819 5820 5823 5824 5823 5823 5823 5824 5824 5823 5823 5823 5823 5821 5818 5815 5811 5808 5804 5802 5799 5797 5795
5662 5674 5685 5696 5707 5718 5727 5737 5745 5754 5761 5770 5775 5779 5784 5788 5792 5796 5799 5803 5805 5808 5809 5812 5814 5815 5817 5817 5818 5817 5818 5819 5818 5817 5817 5816 5815 5813 5810 5807 5802 5798 5795 5791 5788 5785 5781
5644 5657 5671 5683 5695 5705 5718 5727 5737 5745 5753 5761 5768 5774 5778 5784 5787 5791 5795 5798 5800 5802 5804 5807 5809 5811 5811 5811 5813 5813 5812 5813 5813 5811 5810 5808 5806 5804 5802 5798 5794 5789 5786 5782 5778 5775 5772
5627 5641 5655 5669 5682 5695 5706 5717 5726 5736 5744 5752 5760 5767 5772 5778 5782 5786 5790 5793 5796 5798 5800 5802 5805 5807 5806 5807 5808 5808 5807 5806 5806 5805 5804 5802 5800 5798 5794 5790 5786 5782 5777 5772 5770 5766 5763
5608 5624 5639 5654 5668 5684 5695 5706 5716 5727 5735 5743 5752 5760 5766 5773 5778 5780 5785 5788 5792 5795 5797 5798 5801 5803 5802 5802 5802 5803 5803 5801 5800 5799 5797 5795 5793 5790 5787 5783 5778 5774 5770 5765 5761 5759 5755
5590 5608 5624 5640 5654 5671 5683 5696 5706 5717 5727 5736 5744 5752 5760 5767 5772 5776 5780 5783 5789 5792 5793 5795 5797 5798 5796 5798 5798 5797 5797 5796 5794 5794 5792 5788 5786 5782 5780 5776 5772 5768 5763 5758 5754 5751 5748
5573 5591 5608 5625 5642 5659 5672 5686 5697 5708 5718 5728 5736 5745 5753 5759 5764 5769 5774 5778 5782 5788 5790 5791 5792 5793 5792 5793 5793 5792 5793 5792 5790 5788 5786 5783 5779 5776 5772 5769 5766 5762 5757 5752 5746 5742 5737
5554 5573 5593 5611 5630 5646 5660 5674 5687 5699 5709 5720 5729 5737 5745 5751 5758 5763 5768 5773 5777 5781 5785 5787 5788 5788 5788 5790 5788 5787 5787 5786 5785 5783 5780 5777 5774 5770 5768 5764 5759 5755 5750 5745 5738 5731 5724
5535 5558 5578 5595 5616 5634 5650 5665 5680 5690 5700 5711 5720 5728 5738 5745 5753 5757 5762 5768 5772 5777 5779 5782 5783 5783 5784 5784 5784 5783 5782 5781 5779 5777 5773 5772 5769 5766 5764 5760 5755 5749 5744 5737 5729 5722 5716
5519 5541 5563 5581 5602 5622 5639 5654 5670 5681 5694 5703 5713 5721 5731 5738 5745 5751 5757 5761 5766 5771 5773 5777 5778 5779 5778 5779 5779 5779 5778 5776 5774 5771 5770 5768 5765 5761 5758 5755 5750 5744 5738 5731 5724 5717 5710
5501 5527 5546 5570 5589 5609 5628 5643 5659 5674 5685 5696 5706 5716 5725 5733 5740 5745 5751 5755 5760 5766 5768 5771 5772 5773 5774 5775 5775 5775 5774 5772 5768 5766 5764 5764 5761 5758 5754 5750 5745 5739 5732 5726 5718 5711 5704
5484 5510 5534 5554 5577 5598 5618 5634 5650 5664 5678 5689 5698 5709 5718 5725 5733 5740 5745 5750 5756 5759 5763 5766 5767 5768 5770 5770 5771 5770 5769 5767 5765 5763 5761 5761 5758 5755 5751 5746 5740 5735 5729 5723 5716 5707 5702
5467 5496 5521 5543 5565 5587 5608 5625 5641 5657 5671 5680 5690 5701 5710 5719 5727 5733 5739 5746 5750 5753 5757 5759 5761 5763 5765 5765 5766 5765 5764 5762 5761 5760 5759 5758 5756 5753 5748 5745 5741 5734 5728 5721 5713 5707 5702
5455 5484 5510 5531 5552 5578 5597 5615 5633 5649 5663 5672 5685 5694 5703 5713 5721 5728 5736 5739 5743 5748 5753 5755 5757 5759 5760 5760 5762 5761 5759 5759 5757 5757 5757 5756 5753 5749 5745 5742 5738 5732 5726 5719 5712 5707 5702
5443 5471 5501 5523 5543 5565 5587 5605 5622 5640 5654 5665 5676 5687 5695 5706 5715 5723 5729 5733 5739 5744 5747 5750 5752 5755 5755 5756 5756 5756 5754 5756 5755 5755 5753 5753 5751 5747 5743 5740 5736 5730 5724 5718 5710 5705 5700
5433 5463 5491 5514 5533 5556 5577 5595 5615 5633 5643 5658 5669 5681 5690 5700 5709 5716 5722 5729 5735 5738 5742 5746 5748 5750 5751 5751 5751 5751 5752 5752 5752 5752 5751 5750 5748 5746 5742 5738 5734 5728 5723 5717 5711 5705 5700
5427 5455 5480 5505 5526 5547 5567 5587 5607 5623 5639 5650 5663 5673 5684 5694 5703 5709 5719 5726 5730 5734 5738 5741 5743 5745 5746 5746 5746 5747 5748 5749 5750 5750 5749 5748 5746 5743 5740 5736 5732 5727 5722 5716 5710 5705 5698
5425 5451 5476 5502 5519 5541 5562 5584 5599 5617 5633 5642 5656 5668 5679 5689 5697 5707 5715 5721 5725 5729 5733 5735 5739 5741 5741 5742 5743 5743 5745 5747 5748 5748 5746 5746 5744 5742 5739 5737 5732 5727 5722 5716 5710 5703 5697
5416 5445 5467 5490 5510 5534 5558 5579 5595 5610 5624 5639 5651 5660 5673 5683 5693 5702 5709 5715 5720 5724 5728 5732 5735 5737 5737 5738 5739 5741 5743 5744 5745 5745 5744 5743 5742 5740 5738 5735 5731 5727 5721 5716 5709 5703 5697
5408 5440 5463 5483 5505 5532 5555 5575 5592 5604 5618 5634 5646 5658 5672 5677 5688 5696 5703 5709 5715 5720 5725 5728 5730 5731 5733 5734 5736 5738 5740 5741 5742 5742 5742 5741 5740 5737 5735 5732 5729 5725 5720 5715 5708 5703 5696
5415 5435 5458 5479 5503 5527 5551 5566 5581 5600 5614 5629 5642 5655 5667 5679 5686 5694 5699 5706 5711 5716 5721 5723 5726 5728 5729 5731 5734 5735 5737 5738 5740 5739 5739 5739 5738 5736 5734 5730 5728 5722 5717 5713 5708 5702 5695
5409 5435 5455 5476 5500 5524 5545 5564 5580 5596 5610 5625 5638 5653 5664 5674 5681 5688 5695 5702 5708 5712 5716 5719 5722 5724 5726 5729 5731 5732 5734 5736 5737 5737 5737 5737 5735 5734 5732 5728 5725 5721 5716 5713 5708 5701 5695
5411 5431 5452 5476 5498 5520 5542 5561 5579 5592 5609 5623 5637 5651 5659 5668 5677 5684 5690 5697 5702 5706 5710 5715 5718 5720 5723 5725 5727 5729 5731 5733 5734 5735 5735 5735 5733 5732 5729 5726 5724 5720 5715 5710 5705 5700 5693
5408 5430 5451 5473 5495 5516 5538 5557 5575 5591 5606 5619 5635 5646 5655 5665 5674 5680 5687 5692 5697 5702 5706 5710 5714 5717 5719 5721 5724 5726 5728 5730 5731 5732 5732 5732 5730 5730 5727 5724 5722 5719 5714 5709 5702 5697 5690
5406 5427 5452 5473 5494 5515 5535 5555 5573 5589 5603 5619 5629 5640 5652 5661 5669 5676 5682 5688 5694 5699 5703 5706 5709 5712 5714 5717 5720 5722 5724 5727 5729 5729 5729 5729 5727 5727 5724 5722 5720 5716 5712 5706 5701 5696 5689
5411 5432 5454 5475 5496 5516 5536 5555 5571 5587 5599 5615 5627 5639 5648 5657 5664 5671 5679 5686 5693 5695 5699 5701 5705 5707 5709 5713 5716 5718 5721 5724 5725 5725 5726 5725 5724 5723 5720 5719 5716 5713 5708 5703 5699 5696 5687
5416 5437 5458 5478 5498 5518 5536 5554 5569 5583 5599 5614 5625 5636 5645 5653 5661 5668 5676 5683 5687 5690 5694 5697 5698 5701 5704 5708 5712 5715 5718 5720 5721 5723 5723 5722 5721 5719 5717 5715 5714 5709 5705 5701 5696 5690 5684
5420 5441 5461 5482 5501 5520 5536 5553 5569 5584 5599 5611 5621 5631 5641 5651 5659 5665 5672 5677 5682 5685 5690 5692 5695 5697 5699 5703 5708 5710 5714 5716 5718 5719 5719 5718 5718 5716 5714 5712 5709 5706 5702 5697 5692 5687 5681
Wind_Speed
73 69 65 62 61 61 60 56 52 51 43 39 36 35 39 40 44 38 31 31 29 28 36 38 36 37 39 39 41 43 45 47 50 53 50 49 49 50 50 49 50 52 54 53 55 55 56
77 73 70 66 63 61 60 58 53 49 49 44 40 39 28 30 31 25 30 32 29 24 26 28 33 34 31 33 36 38 38 38 39 43 41 43 44 45 47 48 49 51 53 54 55 55 55
81 76 73 69 65 63 60 58 55 53 49 49 45 40 38 21 21 23 13 14 19 30 26 21 19 22 25 26 30 30 34 37 36 37 38 40 39 40 42 45 48 49 49 51 52 54 54
83 79 77 74 68 66 62 60 56 53 51 51 47 43 37 33 25 21 17 11 13 15 22 18 16 6 15 23 23 27 30 32 30 30 33 36 37 38 39 43 46 45 44 43 43 44 45
85 82 79 77 73 68 63 60 57 55 52 49 49 46 41 38 33 28 28 22 16 14 10 11 10 9 14 17 20 21 23 26 26 28 30 31 33 36 39 40 41 40 40 41 41 41 42
88 84 80 78 77 69 66 62 59 57 53 51 48 48 46 42 38 35 33 33 24 22 26 14 17 18 19 22 24 22 24 25 26 30 32 34 37 39 39 38 39 39 40 42 42 42 42
89 85 82 79 78 72 67 61 63 56 54 53 50 49 48 46 43 41 39 40 30 26 15 16 16 21 27 24 23 25 26 28 29 31 32 36 37 38 38 36 37 38 38 40 41 42 43
91 87 84 80 78 74 70 67 63 58 57 53 50 49 49 46 43 43 43 41 36 29 29 21 25 28 29 28 28 29 28 28 29 31 34 36 37 35 33 33 33 34 36 40 43 45 47
94 89 86 82 78 75 73 67 64 60 57 54 48 47 43 42 43 41 41 43 37 32 26 29 29 31 30 28 27 26 26 27 29 31 32 31 30 30 31 32 34 36 38 41 44 46 48
97 91 85 83 79 77 72 68 61 60 55 50 48 46 43 40 42 41 39 37 38 34 36 33 34 27 24 25 26 24 26 28 28 28 29 27 28 28 29 30 33 36 38 39 42 44 44
99 93 88 84 81 77 75 74 69 64 50 55 51 47 42 38 33 34 36 39 36 37 32 30 27 23 23 23 23 25 26 26 26 27 26 26 24 25 27 28 29 31 34 37 39 39 38
101 96 91 82 80 79 76 73 68 64 63 55 53 48 44 40 35 38 34 30 29 28 29 25 21 20 22 23 24 23 24 23 24 24 23 21 22 23 23 25 29 32 34 36 36 36 34
102 97 90 87 81 79 77 70 68 65 59 55 50 44 41 41 39 36 31 30 27 26 24 22 21 22 22 21 22 22 23 21 20 18 17 17 17 17 21 25 29 31 33 34 35 32 29
104 97 92 87 83 80 77 75 70 63 53 56 51 45 42 42 35 32 32 28 26 25 23 21 21 21 20 20 21 23 23 20 18 14 14 14 14 16 19 23 25 28 32 35 35 33 29
99 97 88 86 85 80 79 74 70 63 57 49 52 45 49 43 35 32 31 28 26 24 21 22 22 20 19 18 18 20 20 17 13 11 10 10 13 17 19 21 24 28 32 35 35 33 30
77 96 88 74 82 82 82 78 70 65 62 67 58 55 49 42 37 33 32 30 25 22 22 22 20 19 17 16 19 20 16 13 11 8 8 10 14 16 19 21 24 27 32 34 38 37 33
73 90 89 78 68 84 83 79 75 74 63 64 59 55 50 43 39 37 33 27 26 25 23 21 20 18 18 18 19 16 12 10 8 6 5 9 13 15 18 21 23 28 31 33 34 36 35
74 95 86 87 80 81 82 79 73 71 61 61 58 55 49 45 41 39 32 29 27 24 23 20 18 17 18 18 15 10 8 8 7 5 4 9 12 14 18 21 23 26 28 31 33 33 32
82 87 87 72 69 81 80 74 71 70 70 66 60 55 50 45 41 36 31 28 27 25 23 17 17 17 16 15 10 7 8 8 7 5 5 8 10 13 17 19 21 23 25 28 30 32 32
96 84 92 85 76 84 82 79 56 63 67 65 59 56 51 45 40 35 30 28 27 24 20 17 17 18 17 15 10 10 9 10 8 5 5 7 10 13 16 17 19 21 24 26 29 30 31
93 79 77 92 87 83 78 73 77 75 66 64 56 53 46 43 42 37 36 33 26 21 18 18 19 20 17 11 11 10 11 11 8 5 5 7 10 13 15 17 19 20 23 25 28 29 31
97 82 86 80 87 86 82 75 68 64 63 58 55 53 44 34 36 34 34 28 23 20 15 17 17 15 13 10 11 11 12 12 9 6 6 7 9 12 14 16 18 20 23 25 25 27 30
95 72 78 91 91 90 85 78 69 62 63 63 57 53 41 34 38 33 28 25 22 20 20 18 16 16 11 12 13 11 13 12 9 7 6 8 9 11 13 16 18 21 22 23 24 26 28
91 77 78 91 90 90 89 84 82 67 57 54 56 45 45 46 36 26 29 26 25 25 26 25 21 18 16 17 14 13 14 12 9 8 7 9 8 9 12 16 18 20 21 23 23 25 27
85 71 86 91 93 88 86 84 82 71 67 51 51 47 45 38 37 31 28 27 26 22 22 24 22 18 19 19 16 14 14 13 10 9 7 8 7 7 11 17 20 20 21 22 24 26 27
88 77 91 91 93 91 83 75 78 77 61 61 53 44 43 43 37 34 31 29 25 22 22 23 19 18 19 19 17 15 15 14 11 10 8 9 9 11 13 16 20 21 22 23 24 24 26
95 92 89 89 90 88 84 79 71 69 66 66 54 49 44 46 42 35 31 28 26 23 23 21 20 22 22 22 18 16 16 14 13 10 10 10 11 13 15 18 21 23 24 24 25 25 26
82 89 87 88 87 85 84 79 77 71 61 57 44 54 49 44 37 32 30 26 23 23 23 20 20 20 23 25 17 16 17 15 13 11 11 11 13 15 16 19 20 23 24 25 26 27 28
85 86 86 86 84 82 80 80 78 68 58 58 49 53 50 45 37 34 33 28 26 25 22 23 19 20 28 25 20 21 18 16 13 12 11 11 13 14 16 18 21 23 24 25 27 27 28
Wind_Direction
233 232 232 232 229 231 233 232 231 229 236 250 248 261 225 227 242 240 238 247 245 247 253 256 260 260 263 266 270 273 276 278 279 280 283 285 285 287 289 290 289 288 289 289 289 288 288
232 231 231 231 230 228 231 232 231 232 228 233 233 253 262 240 234 238 242 241 237 237 244 255 250 255 262 265 269 275 277 277 279 282 286 287 289 291 290 290 289 289 290 290 290 288 288
231 230 230 229 229 229 228 229 229 230 226 229 228 241 258 252 226 217 223 223 236 239 239 252 264 262 262 262 266 272 276 281 285 289 290 290 291 290 289 288 289 290 291 291 291 292 292
228 228 229 228 227 228 228 227 228 227 228 227 230 232 241 260 259 252 243 238 252 235 240 232 259 270 271 259 262 275 280 286 290 293 295 297 295 294 293 292 294 297 299 298 296 294 293
226 225 226 227 226 227 227 226 226 227 228 230 226 227 233 246 255 253 262 255 264 256 242 257 255 273 279 276 277 284 288 291 295 294 294 293 294 295 296 300 302 302 300 298 295 293 293
223 224 223 224 225 223 223 226 224 226 227 228 228 229 230 235 243 245 253 265 264 258 261 271 268 281 286 284 285 284 288 289 294 297 293 295 301 302 303 306 304 301 298 298 298 297 298
221 220 221 221 224 221 221 220 226 222 225 226 226 229 230 232 238 239 243 256 264 267 243 264 272 286 288 292 287 284 287 291 296 299 303 305 306 305 306 304 302 301 301 301 300 300 298
217 219 218 218 219 220 218 218 223 220 221 224 225 228 233 237 236 239 240 244 254 260 265 259 277 277 280 285 287 289 294 295 300 305 307 305 302 304 304 303 304 305 304 304 304 302 300
215 216 217 216 215 215 218 217 220 220 219 221 221 225 231 232 237 238 242 239 245 248 253 260 270 279 277 281 283 290 296 300 305 307 306 307 308 309 309 310 310 311 309 308 306 306 305
212 213 213 213 211 212 213 214 217 221 219 219 220 224 227 232 237 236 238 241 244 247 252 259 270 270 272 277 286 294 303 306 307 310 311 311 312 312 312 314 316 315 315 314 314 313 313
210 209 211 211 209 209 207 211 208 214 215 214 222 224 228 230 228 228 231 236 242 250 256 253 255 263 269 279 288 295 303 306 306 310 311 312 316 319 322 322 322 325 325 326 323 320 320
207 207 209 208 208 207 207 209 210 211 211 216 219 223 225 223 230 233 235 237 242 239 240 244 252 262 271 279 287 297 304 310 313 312 315 317 322 325 326 330 335 337 337 337 335 334 332
204 206 205 206 206 205 205 205 208 210 211 210 216 215 216 217 218 224 232 234 231 234 238 246 257 267 277 284 294 303 308 311 313 314 317 322 326 334 342 346 349 349 350 351 352 352 347
201 202 202 204 204 201 202 201 205 205 207 212 210 211 212 205 217 228 229 229 228 233 236 248 259 268 276 286 296 304 306 310 311 311 317 328 335 348 354 358 357 3 6 9 7 3 354
195 198 199 203 202 199 199 200 201 199 190 197 206 204 201 218 226 224 223 224 226 232 238 248 257 268 279 288 295 300 304 304 304 307 320 332 342 350 0 4 6 13 16 19 18 13 5
184 193 192 193 201 196 197 196 196 195 199 203 207 205 211 219 218 214 220 223 226 232 242 251 261 269 279 287 294 296 297 290 288 296 316 336 349 356 5 8 10 18 19 20 23 17 11
188 188 188 183 193 194 195 195 195 194 199 205 204 208 210 211 210 216 220 221 226 231 242 251 259 270 278 283 282 285 281 268 266 280 308 342 351 0 8 11 14 18 16 19 21 18 13
183 183 187 193 197 192 194 194 195 195 193 201 203 206 205 207 210 214 215 220 228 233 241 248 260 267 272 273 272 275 247 252 249 266 311 346 353 360 8 9 13 15 14 16 19 15 14
172 184 177 174 194 190 191 191 197 196 195 203 202 204 202 204 210 209 217 222 225 232 239 251 256 260 267 264 268 245 237 234 233 261 316 344 352 357 2 6 10 10 11 14 16 14 13
172 176 181 179 187 187 187 187 184 193 195 202 201 200 198 204 205 203 211 217 227 227 240 248 251 252 264 261 249 234 238 228 227 260 310 341 344 355 358 356 3 7 9 10 13 16 12
178 170 175 186 188 184 183 184 182 192 200 198 198 200 202 202 201 205 211 218 220 231 241 247 240 242 257 245 228 233 234 220 228 266 315 338 336 352 350 350 353 0 6 8 11 13 14
175 175 173 174 183 180 180 178 178 180 189 192 193 194 194 195 198 204 211 213 217 226 222 220 228 243 250 232 230 232 232 222 236 266 302 321 331 346 347 352 351 359 1 3 5 10 12
178 170 179 180 179 178 177 181 185 194 191 192 192 193 193 202 195 198 202 209 214 213 215 222 228 232 229 227 240 242 236 229 240 264 287 307 329 339 344 350 352 358 355 353 359 4 7
169 171 177 180 178 178 183 185 186 188 187 193 194 191 197 189 195 199 206 209 218 221 224 235 232 232 224 222 235 243 235 229 239 260 282 300 323 328 331 342 347 347 348 349 355 356 359
173 169 173 176 176 178 176 181 186 188 189 189 191 191 191 199 209 215 212 214 223 223 224 228 228 241 234 227 234 243 232 231 242 259 277 291 307 314 328 333 336 338 343 345 348 351 356
172 178 178 176 177 180 180 179 181 189 189 195 194 199 199 203 209 208 208 214 212 217 232 226 228 238 231 223 238 240 230 231 238 255 267 286 301 311 322 328 329 335 341 343 345 348 350
180 176 175 175 175 178 181 182 182 186 190 190 196 194 199 202 207 207 208 216 221 225 230 225 248 238 222 213 235 232 227 229 238 250 266 289 303 314 323 323 324 330 338 341 344 346 346
175 176 174 175 176 177 179 179 180 187 180 183 193 201 197 202 211 204 209 208 216 223 228 245 246 228 227 210 228 227 225 226 238 254 273 294 310 320 329 329 328 328 334 340 343 345 345
171 171 172 174 175 176 178 181 184 181 181 186 195 194 201 205 208 208 211 216 220 227 235 237 239 229 202 212 217 219 220 230 241 257 279 299 310 318 329 340 330 334 335 339 341 343 343